Time,TemperatureF,DewpointF,PressureIn,WindDirection,WindDirectionDegrees,WindSpeedMPH,WindSpeedGustMPH,Humidity,HourlyPrecipIn,Conditions,Clouds,dailyrainin,SoftwareType,DateUTC
2013-11-03 00:00:00,62.5,47.4,27.37,ESE,113,0.0,0.0,58,0.06,,,0.06,WUHU216HW,2013-11-03 07:00:00,
2013-11-03 00:05:00,62.5,47.4,27.37,ENE,68,0.4,0.4,58,0.05,,,0.00,WUHU216HW,2013-11-03 07:05:00,
2013-11-03 00:10:00,62.5,47.4,27.37,ENE,68,0.4,0.4,58,0.05,,,0.00,WUHU216HW,2013-11-03 07:10:00,
2013-11-03 00:30:00,62.1,49.0,27.37,NE,45,2.0,2.0,62,0.03,,,0.00,WUHU216HW,2013-11-03 07:30:00,
2013-11-03 00:35:00,61.9,48.8,27.37,North,0,1.6,2.0,62,0.03,,,0.03,WUHU216HW,2013-11-03 07:35:00,
2013-11-03 00:40:00,61.9,48.8,27.37,North,0,1.6,2.0,62,0.03,,,0.03,WUHU216HW,2013-11-03 07:40:00,
2013-11-03 01:00:00,61.7,49.4,27.37,ENE,68,0.0,0.0,64,0.04,,,0.03,WUHU216HW,2013-11-03 08:00:00,
2013-11-03 01:05:00,61.7,49.4,27.37,East,90,0.0,0.0,64,0.04,,,0.04,WUHU216HW,2013-11-03 08:05:00,
2013-11-03 01:10:00,61.7,49.4,27.37,East,90,0.0,0.0,64,0.04,,,0.04,WUHU216HW,2013-11-03 08:10:00,
2013-11-03 01:30:00,61.2,50.2,27.37,ENE,68,1.1,1.1,67,0.01,,,0.04,WUHU216HW,2013-11-03 08:30:00,
2013-11-03 01:35:00,61.4,50.4,27.37,East,90,0.4,1.1,67,0.01,,,0.04,WUHU216HW,2013-11-03 08:35:00,
2013-11-03 01:40:00,61.4,50.4,27.37,East,90,0.4,1.1,67,0.01,,,0.04,WUHU216HW,2013-11-03 08:40:00,
2013-11-03 02:00:00,61.6,50.1,27.33,NNE,23,0.0,0.0,66,0.01,,,0.04,WUHU216HW,2013-11-03 09:00:00,
2013-11-03 02:05:00,61.7,50.3,27.33,NNE,23,0.2,0.2,66,0.01,,,0.05,WUHU216HW,2013-11-03 09:05:00,
2013-11-03 02:10:00,61.7,50.3,27.33,NNE,23,0.2,0.2,66,0.01,,,0.05,WUHU216HW,2013-11-03 09:10:00,
2013-11-03 02:30:00,61.4,50.4,27.32,NNE,23,0.4,0.4,67,0.01,,,0.05,WUHU216HW,2013-11-03 09:30:00,
2013-11-03 02:35:00,61.4,50.4,27.32,North,0,0.7,0.7,67,0.01,,,0.05,WUHU216HW,2013-11-03 09:35:00,
2013-11-03 02:40:00,61.4,50.4,27.32,North,0,0.7,0.7,67,0.01,,,0.05,WUHU216HW,2013-11-03 09:40:00,
2013-11-03 03:00:00,61.2,50.2,27.30,NNE,23,0.0,0.0,67,0.00,,,0.05,WUHU216HW,2013-11-03 10:00:00,
2013-11-03 03:05:00,61.2,50.2,27.30,NNE,23,0.0,0.0,67,0.00,,,0.05,WUHU216HW,2013-11-03 10:05:00,
2013-11-03 03:10:00,61.2,50.2,27.30,NNE,23,0.0,0.0,67,0.00,,,0.05,WUHU216HW,2013-11-03 10:10:00,
2013-11-03 03:30:00,60.8,49.9,27.29,NNE,23,0.0,0.0,67,0.00,,,0.05,WUHU216HW,2013-11-03 10:30:00,
2013-11-03 03:35:00,60.8,49.9,27.29,NNE,23,0.0,0.0,67,0.00,,,0.05,WUHU216HW,2013-11-03 10:35:00,
2013-11-03 03:40:00,60.8,49.9,27.29,NNE,23,0.0,0.0,67,0.00,,,0.05,WUHU216HW,2013-11-03 10:40:00,
2013-11-03 04:00:00,60.1,49.6,27.27,ESE,113,0.0,0.0,68,0.00,,,0.05,WUHU216HW,2013-11-03 11:00:00,
2013-11-03 04:05:00,60.1,49.6,27.27,ESE,113,0.0,0.0,68,0.00,,,0.05,WUHU216HW,2013-11-03 11:05:00,
2013-11-03 04:10:00,60.1,49.6,27.27,ESE,113,0.0,0.0,68,0.00,,,0.05,WUHU216HW,2013-11-03 11:10:00,
2013-11-03 04:30:00,59.6,49.1,27.27,SE,135,0.0,0.0,68,0.00,,,0.05,WUHU216HW,2013-11-03 11:30:00,
2013-11-03 04:35:00,59.6,49.1,27.27,SE,135,0.0,0.0,68,0.00,,,0.05,WUHU216HW,2013-11-03 11:35:00,
2013-11-03 04:40:00,59.6,49.1,27.27,SE,135,0.0,0.0,68,0.00,,,0.05,WUHU216HW,2013-11-03 11:40:00,
2013-11-03 05:00:00,58.9,48.7,27.26,NNE,23,0.0,0.0,69,0.00,,,0.05,WUHU216HW,2013-11-03 12:00:00,
2013-11-03 05:05:00,58.9,48.7,27.26,NNE,23,0.0,0.0,69,0.00,,,0.05,WUHU216HW,2013-11-03 12:05:00,
2013-11-03 05:10:00,58.9,48.7,27.26,NNE,23,0.0,0.0,69,0.00,,,0.05,WUHU216HW,2013-11-03 12:10:00,
2013-11-03 05:30:00,58.5,49.1,27.27,NW,315,0.0,0.0,71,0.00,,,0.05,WUHU216HW,2013-11-03 12:30:00,
2013-11-03 05:35:00,58.7,49.3,27.27,NW,315,0.0,0.0,71,0.00,,,0.05,WUHU216HW,2013-11-03 12:35:00,
2013-11-03 05:40:00,58.7,49.3,27.27,NW,315,0.0,0.0,71,0.00,,,0.05,WUHU216HW,2013-11-03 12:40:00,
2013-11-03 06:00:00,58.1,49.5,27.27,NNE,23,0.9,0.9,73,0.00,,,0.05,WUHU216HW,2013-11-03 13:00:00,
2013-11-03 06:05:00,58.0,49.3,27.27,North,0,1.1,1.1,73,0.00,,,0.05,WUHU216HW,2013-11-03 13:05:00,
2013-11-03 06:10:00,58.0,49.3,27.27,North,0,1.1,1.1,73,0.00,,,0.05,WUHU216HW,2013-11-03 13:10:00,
2013-11-03 06:30:00,58.1,48.8,27.28,North,0,0.0,0.0,71,0.00,,,0.05,WUHU216HW,2013-11-03 13:30:00,
2013-11-03 06:35:00,58.1,48.8,27.28,North,0,0.0,0.0,71,0.00,,,0.05,WUHU216HW,2013-11-03 13:35:00,
2013-11-03 06:40:00,58.1,48.8,27.28,North,0,0.0,0.0,71,0.00,,,0.05,WUHU216HW,2013-11-03 13:40:00,
2013-11-03 07:00:00,58.0,48.6,27.27,SE,135,0.0,0.0,71,0.00,,,0.05,WUHU216HW,2013-11-03 14:00:00,
2013-11-03 07:05:00,58.0,48.6,27.27,SSE,158,0.0,0.0,71,0.00,,,0.05,WUHU216HW,2013-11-03 14:05:00,
2013-11-03 07:10:00,58.0,48.6,27.27,SSE,158,0.0,0.0,71,0.00,,,0.05,WUHU216HW,2013-11-03 14:10:00,
2013-11-03 07:30:00,58.1,49.5,27.29,SE,135,0.0,0.0,73,0.00,,,0.05,WUHU216HW,2013-11-03 14:30:00,
2013-11-03 07:35:00,58.1,49.5,27.29,SE,135,0.0,0.0,73,0.00,,,0.05,WUHU216HW,2013-11-03 14:35:00,
2013-11-03 07:40:00,58.1,49.5,27.29,SE,135,0.0,0.0,73,0.00,,,0.05,WUHU216HW,2013-11-03 14:40:00,
2013-11-03 08:00:00,59.4,50.0,27.29,SE,135,0.0,0.0,71,0.00,,,0.05,WUHU216HW,2013-11-03 15:00:00,
2013-11-03 08:05:00,59.4,50.0,27.29,SE,135,0.0,0.0,71,0.00,,,0.05,WUHU216HW,2013-11-03 15:05:00,
2013-11-03 08:10:00,59.4,50.0,27.29,SE,135,0.0,0.0,71,0.00,,,0.05,WUHU216HW,2013-11-03 15:10:00,
2013-11-03 08:30:00,61.4,51.2,27.30,West,270,0.4,0.4,69,0.00,,,0.05,WUHU216HW,2013-11-03 15:30:00,
2013-11-03 08:35:00,61.6,51.4,27.30,West,270,0.4,0.4,69,0.00,,,0.05,WUHU216HW,2013-11-03 15:35:00,
2013-11-03 08:40:00,61.6,51.4,27.30,West,270,0.4,0.4,69,0.00,,,0.05,WUHU216HW,2013-11-03 15:40:00,
2013-11-03 09:00:00,63.4,51.8,27.30,North,0,0.2,0.2,66,0.00,,,0.05,WUHU216HW,2013-11-03 16:00:00,
2013-11-03 09:05:00,63.4,51.8,27.30,North,0,0.0,0.4,66,0.00,,,0.05,WUHU216HW,2013-11-03 16:05:00,
2013-11-03 09:10:00,63.4,51.8,27.30,North,0,0.0,0.4,66,0.00,,,0.05,WUHU216HW,2013-11-03 16:10:00,
2013-11-03 09:30:00,65.0,51.6,27.30,SSE,158,0.0,0.0,62,0.00,,,0.05,WUHU216HW,2013-11-03 16:30:00,
2013-11-03 09:35:00,65.0,51.6,27.30,SSE,158,0.2,0.2,62,0.00,,,0.05,WUHU216HW,2013-11-03 16:35:00,
2013-11-03 09:40:00,65.0,51.6,27.30,SSE,158,0.2,0.2,62,0.00,,,0.05,WUHU216HW,2013-11-03 16:40:00,
2013-11-03 10:00:00,67.1,51.8,27.30,SW,225,0.4,0.4,58,0.00,,,0.05,WUHU216HW,2013-11-03 17:00:00,
2013-11-03 10:05:00,67.3,52.0,27.30,SSW,203,0.4,0.4,58,0.00,,,0.05,WUHU216HW,2013-11-03 17:05:00,
2013-11-03 10:10:00,67.3,52.0,27.30,SSW,203,0.4,0.4,58,0.00,,,0.05,WUHU216HW,2013-11-03 17:10:00,
2013-11-03 10:30:00,69.5,51.1,27.29,SW,225,0.4,0.4,52,0.00,,,0.05,WUHU216HW,2013-11-03 17:30:00,
2013-11-03 10:35:00,69.5,51.1,27.29,SW,225,0.4,0.4,52,0.00,,,0.05,WUHU216HW,2013-11-03 17:35:00,
2013-11-03 10:40:00,69.5,51.1,27.29,SW,225,0.4,0.4,52,0.00,,,0.05,WUHU216HW,2013-11-03 17:40:00,
2013-11-03 11:00:00,71.1,50.3,27.28,SE,135,0.0,0.0,48,0.00,,,0.05,WUHU216HW,2013-11-03 18:00:00,
2013-11-03 11:05:00,71.1,50.3,27.28,SE,135,0.0,0.0,48,0.00,,,0.05,WUHU216HW,2013-11-03 18:05:00,
2013-11-03 11:10:00,71.1,50.3,27.28,SE,135,0.0,0.0,48,0.00,,,0.05,WUHU216HW,2013-11-03 18:10:00,
2013-11-03 11:30:00,73.1,49.8,27.27,SE,135,2.5,2.5,44,0.00,,,0.05,WUHU216HW,2013-11-03 18:30:00,
2013-11-03 11:35:00,73.1,49.8,27.27,SSE,158,1.8,2.5,44,0.00,,,0.05,WUHU216HW,2013-11-03 18:35:00,
2013-11-03 11:40:00,73.1,49.8,27.27,SSE,158,1.8,2.5,44,0.00,,,0.05,WUHU216HW,2013-11-03 18:40:00,
2013-11-03 12:00:00,74.2,46.8,27.26,WSW,248,0.9,0.9,38,0.00,,,0.05,WUHU216HW,2013-11-03 19:00:00,
2013-11-03 12:05:00,74.2,46.8,27.26,SW,225,0.9,0.9,38,0.00,,,0.05,WUHU216HW,2013-11-03 19:05:00,
2013-11-03 12:10:00,74.2,46.8,27.26,SW,225,0.9,0.9,38,0.00,,,0.05,WUHU216HW,2013-11-03 19:10:00,
2013-11-03 12:30:00,75.2,47.1,27.24,SSE,158,0.9,0.9,37,0.00,,,0.05,WUHU216HW,2013-11-03 19:30:00,
2013-11-03 12:35:00,75.2,47.1,27.24,ESE,113,2.5,2.5,37,0.00,,,0.05,WUHU216HW,2013-11-03 19:35:00,
2013-11-03 12:40:00,75.2,47.1,27.24,ESE,113,2.5,2.5,37,0.00,,,0.05,WUHU216HW,2013-11-03 19:40:00,
2013-11-03 13:00:00,76.7,48.3,27.23,WSW,248,0.7,0.7,37,0.00,,,0.05,WUHU216HW,2013-11-03 20:00:00,
2013-11-03 13:05:00,76.7,48.3,27.23,NNW,338,1.8,1.8,37,0.00,,,0.05,WUHU216HW,2013-11-03 20:05:00,
2013-11-03 13:10:00,76.7,48.3,27.23,NNW,338,1.8,1.8,37,0.00,,,0.05,WUHU216HW,2013-11-03 20:10:00,
2013-11-03 13:30:00,77.2,47.4,27.22,WSW,248,1.3,1.3,35,0.00,,,0.05,WUHU216HW,2013-11-03 20:30:00,
2013-11-03 13:35:00,77.2,46.5,27.22,WSW,248,1.3,1.3,34,0.00,,,0.05,WUHU216HW,2013-11-03 20:35:00,
2013-11-03 13:40:00,77.2,46.5,27.22,WSW,248,1.3,1.3,34,0.00,,,0.05,WUHU216HW,2013-11-03 20:40:00,
2013-11-03 14:00:00,78.3,46.7,27.20,SW,225,2.7,2.7,33,0.00,,,0.05,WUHU216HW,2013-11-03 21:00:00,
2013-11-03 14:05:00,78.3,46.7,27.20,WSW,248,2.0,2.7,33,0.00,,,0.05,WUHU216HW,2013-11-03 21:05:00,
2013-11-03 14:10:00,78.3,46.7,27.20,WSW,248,2.0,2.0,33,0.00,,,0.05,WUHU216HW,2013-11-03 21:10:00,
2013-11-03 14:30:00,78.8,46.4,27.19,West,270,1.6,1.6,32,0.00,,,0.05,WUHU216HW,2013-11-03 21:30:00,
2013-11-03 14:35:00,78.8,46.4,27.19,NW,315,1.3,1.6,32,0.00,,,0.05,WUHU216HW,2013-11-03 21:35:00,
2013-11-03 14:40:00,78.8,46.4,27.19,NW,315,1.3,1.6,32,0.00,,,0.05,WUHU216HW,2013-11-03 21:40:00,
2013-11-03 15:00:00,77.9,44.1,27.18,NW,315,1.8,1.8,30,0.00,,,0.05,WUHU216HW,2013-11-03 22:00:00,
2013-11-03 15:05:00,77.9,44.1,27.18,North,0,2.7,3.4,30,0.00,,,0.05,WUHU216HW,2013-11-03 22:05:00,
2013-11-03 15:10:00,77.9,44.1,27.18,North,0,2.7,3.4,30,0.00,,,0.05,WUHU216HW,2013-11-03 22:10:00,
2013-11-03 15:30:00,79.4,43.2,27.17,West,270,1.6,1.6,28,0.00,,,0.05,WUHU216HW,2013-11-03 22:30:00,
2013-11-03 15:35:00,79.2,43.0,27.17,WSW,248,1.8,1.8,28,0.00,,,0.05,WUHU216HW,2013-11-03 22:35:00,
2013-11-03 15:40:00,79.2,43.0,27.17,WSW,248,1.8,1.8,28,0.00,,,0.05,WUHU216HW,2013-11-03 22:40:00,
2013-11-03 16:00:00,79.2,44.1,27.17,West,270,4.0,4.0,29,0.00,,,0.05,WUHU216HW,2013-11-03 23:00:00,
2013-11-03 16:05:00,79.2,43.0,27.17,WSW,248,2.5,4.0,28,0.00,,,0.05,WUHU216HW,2013-11-03 23:05:00,
2013-11-03 16:10:00,79.2,43.0,27.17,WSW,248,2.5,4.0,28,0.00,,,0.05,WUHU216HW,2013-11-03 23:10:00,
2013-11-03 16:30:00,78.1,43.2,27.17,WSW,248,1.8,1.8,29,0.00,,,0.05,WUHU216HW,2013-11-03 23:30:00,
2013-11-03 16:35:00,78.1,43.2,27.17,WSW,248,1.8,1.8,29,0.00,,,0.05,WUHU216HW,2013-11-03 23:35:00,
2013-11-03 17:00:00,77.4,43.7,27.16,WSW,248,1.1,1.1,30,0.00,,,0.05,WUHU216HW,2013-11-04 00:00:00,
2013-11-03 17:05:00,77.2,43.6,27.16,WSW,248,1.1,1.1,30,0.00,,,0.05,WUHU216HW,2013-11-04 00:05:00,
2013-11-03 17:10:00,77.2,43.6,27.16,WSW,248,1.1,1.1,30,0.00,,,0.05,WUHU216HW,2013-11-04 00:10:00,
2013-11-03 17:30:00,76.0,43.2,27.16,WSW,248,1.3,1.3,31,0.00,,,0.05,WUHU216HW,2013-11-04 00:30:00,
2013-11-03 17:35:00,76.0,43.2,27.16,WSW,248,0.4,1.3,31,0.00,,,0.05,WUHU216HW,2013-11-04 00:35:00,
2013-11-03 17:40:00,76.0,43.2,27.16,WSW,248,0.4,1.3,31,0.00,,,0.05,WUHU216HW,2013-11-04 00:40:00,
2013-11-03 18:00:00,74.5,42.7,27.17,WSW,248,0.4,0.4,32,0.00,,,0.05,WUHU216HW,2013-11-04 01:00:00,
2013-11-03 18:05:00,74.5,42.7,27.17,SW,225,0.4,0.7,32,0.00,,,0.05,WUHU216HW,2013-11-04 01:05:00,
2013-11-03 18:10:00,74.5,42.7,27.17,SW,225,0.4,0.7,32,0.00,,,0.05,WUHU216HW,2013-11-04 01:10:00,
2013-11-03 18:30:00,73.1,42.1,27.18,WSW,248,0.0,0.0,33,0.00,,,0.05,WUHU216HW,2013-11-04 01:30:00,
2013-11-03 18:35:00,73.1,42.1,27.18,WSW,248,0.0,0.0,33,0.00,,,0.05,WUHU216HW,2013-11-04 01:35:00,
2013-11-03 18:40:00,73.1,42.1,27.18,WSW,248,0.0,0.0,33,0.00,,,0.05,WUHU216HW,2013-11-04 01:40:00,
2013-11-03 19:00:00,71.3,41.3,27.19,WNW,293,0.4,0.4,34,0.00,,,0.05,WUHU216HW,2013-11-04 02:00:00,
2013-11-03 19:05:00,71.3,41.3,27.19,WNW,293,0.4,0.4,34,0.00,,,0.05,WUHU216HW,2013-11-04 02:05:00,
2013-11-03 19:10:00,71.3,41.3,27.19,WNW,293,0.4,0.4,34,0.00,,,0.05,WUHU216HW,2013-11-04 02:10:00,
2013-11-03 19:30:00,70.6,40.7,27.19,WSW,248,0.4,0.4,34,0.00,,,0.05,WUHU216HW,2013-11-04 02:30:00,
2013-11-03 19:35:00,70.6,40.7,27.19,WSW,248,0.4,0.4,34,0.00,,,0.05,WUHU216HW,2013-11-04 02:35:00,
2013-11-03 20:00:00,69.8,40.8,27.20,WNW,293,0.0,0.0,35,0.00,,,0.05,WUHU216HW,2013-11-04 03:00:00,
2013-11-03 20:05:00,69.8,40.8,27.20,WNW,293,0.2,0.2,35,0.00,,,0.05,WUHU216HW,2013-11-04 03:05:00,
2013-11-03 20:10:00,69.8,40.8,27.20,WNW,293,0.2,0.2,35,0.00,,,0.05,WUHU216HW,2013-11-04 03:10:00,
2013-11-03 20:30:00,68.2,40.8,27.20,SW,225,0.9,0.9,37,0.00,,,0.05,WUHU216HW,2013-11-04 03:30:00,
2013-11-03 20:35:00,68.2,40.8,27.20,WSW,248,1.1,1.1,37,0.00,,,0.05,WUHU216HW,2013-11-04 03:35:00,
2013-11-03 20:40:00,68.2,40.8,27.20,WSW,248,1.1,1.1,37,0.00,,,0.05,WUHU216HW,2013-11-04 03:40:00,
2013-11-03 21:00:00,68.8,41.3,27.21,SW,225,1.1,1.1,37,0.00,,,0.05,WUHU216HW,2013-11-04 04:00:00,
2013-11-03 21:05:00,68.8,40.5,27.21,WSW,248,0.9,1.1,36,0.00,,,0.05,WUHU216HW,2013-11-04 04:05:00,
2013-11-03 21:10:00,68.8,40.5,27.21,WSW,248,0.9,1.1,36,0.00,,,0.05,WUHU216HW,2013-11-04 04:10:00,
2013-11-03 21:30:00,67.3,41.5,27.22,ENE,68,0.0,0.0,39,0.00,,,0.05,WUHU216HW,2013-11-04 04:30:00,
2013-11-03 21:35:00,67.3,41.5,27.22,ENE,68,0.0,0.0,39,0.00,,,0.05,WUHU216HW,2013-11-04 04:35:00,
2013-11-03 21:40:00,67.3,41.5,27.22,ENE,68,0.0,0.0,39,0.00,,,0.05,WUHU216HW,2013-11-04 04:40:00,
2013-11-03 22:00:00,64.4,40.1,27.22,ENE,68,0.4,0.4,41,0.00,,,0.05,WUHU216HW,2013-11-04 05:00:00,
2013-11-03 22:01:00,64.3,40.1,27.22,ENE,68,0.0,0.4,41,0.00,,,0.05,WUHU216HW,2013-11-04 05:01:00,
2013-11-03 22:06:00,64.3,40.1,27.22,ENE,68,0.0,0.4,41,0.00,,,0.05,WUHU216HW,2013-11-04 05:06:00,
2013-11-03 22:30:00,63.2,40.2,27.22,ENE,68,0.0,0.0,43,0.00,,,0.05,WUHU216HW,2013-11-04 05:30:00,
2013-11-03 22:35:00,63.2,40.2,27.22,ENE,68,0.0,0.0,43,0.00,,,0.05,WUHU216HW,2013-11-04 05:35:00,
2013-11-03 22:40:00,63.2,40.2,27.22,ENE,68,0.0,0.0,43,0.00,,,0.05,WUHU216HW,2013-11-04 05:40:00,
2013-11-03 23:00:00,62.1,42.7,27.21,East,90,0.0,0.0,49,0.00,,,0.05,WUHU216HW,2013-11-04 06:00:00,
2013-11-03 23:05:00,62.1,42.1,27.21,East,90,0.0,0.0,48,0.00,,,0.05,WUHU216HW,2013-11-04 06:05:00,
2013-11-03 23:10:00,62.1,42.1,27.21,East,90,0.0,0.0,48,0.00,,,0.05,WUHU216HW,2013-11-04 06:10:00,
2013-11-03 23:30:00,60.8,41.6,27.22,SE,135,0.0,0.0,49,0.00,,,0.05,WUHU216HW,2013-11-04 06:30:00,
2013-11-03 23:35:00,60.7,41.4,27.22,SE,135,0.0,0.0,49,0.00,,,0.05,WUHU216HW,2013-11-04 06:35:00,
2013-11-03 23:40:00,60.7,41.4,27.22,SE,135,0.0,0.0,49,0.00,,,0.05,WUHU216HW,2013-11-04 06:40:00,